#timestamp,LO_Frequency,Hit,StdDev 
1547974815.5,286047004.3,N
1547974835.3,286046999.7,N
1547974855.2,286047002.3,N
1547974875.0,286047004.4,N
1547974875.9,286047004.4,N
1547974895.8,286047004.1,N
1547974915.6,286047006.0,N
1547974935.4,286047004.5,N
1547974955.3,286047006.7,N
1547974975.1,286047006.7,N
1547974995.8,286047005.4,N
1547975015.7,286047005.8,N
1547975035.5,286047004.0,N
1547975055.4,286047004.2,N
1547975075.2,286047002.7,N
1547975095.0,286047000.7,N
1547975095.9,286047000.7,N
1547975115.8,286046999.5,N
1547975135.6,286046996.8,N
1547975155.4,286046999.3,N
1547975175.3,286047002.1,N
1547975195.1,286047002.5,N
1547975215.9,286047002.5,N
1547975235.7,286047002.2,N
1547975255.5,286047002.1,N
1547975275.4,286046999.9,N
1547975295.2,286047000.0,N
1547975315.0,286047001.8,N
1547975315.9,286047001.8,N
1547975335.8,286047002.0,N
1547975355.6,286047002.6,N
1547975375.4,286046999.9,N
1547975395.3,286047000.5,N
1547975415.1,286047002.4,N
1547975435.9,286047002.3,N
1547975455.7,286047002.5,N
1547975475.5,286047000.0,N
1547975495.4,286047000.6,N
1547975515.2,286047000.4,N
1547975535.1,286047002.5,N
1547975536.0,286047002.5,N
1547975555.8,286047002.0,N
1547975575.6,286047001.7,N
1547975595.5,286047001.9,N
1547975615.3,286047002.8,N
1547975635.1,286047000.0,N
1547975655.9,286047000.7,N
1547975675.7,286046996.6,N
1547975695.6,286046997.3,N
1547975715.4,286046995.9,N
1547975735.2,286046993.6,Y
1547975755.1,286046992.0,P
1547975756.0,286046992.0,N
1547975775.8,286046992.9,N
1547975795.6,286046994.2,N
1547975815.5,286046995.3,N
1547975835.3,286046995.2,N
1547975855.2,286046997.2,N
1547975875.9,286046999.0,N
1547975895.7,286046997.1,N
1547975915.6,286047011.9,Y
1547975935.4,286047002.2,P
1547975955.3,286047001.7,N
1547975975.1,286047001.4,N
1547975976.0,286047001.4,N
1547975995.8,286047002.5,N
1547976015.7,286047001.9,N
1547976035.5,286047001.7,N
1547976055.3,286047004.3,N
1547976075.2,286047003.9,N
1547976095.0,286047002.6,N
1547976095.9,286047002.6,N
1547976115.8,286047003.6,N
1547976135.6,286047003.2,N
1547976155.4,286047001.7,N
1547976175.3,286047002.7,N
1547976195.1,286047002.4,N
1547976215.8,286047002.7,N
1547976235.7,286047001.2,N
1547976255.5,286046998.6,N
1547976275.4,286047000.7,N
1547976295.2,286047002.4,N
1547976315.0,286047000.6,N
1547976315.9,286047000.6,N
1547976335.8,286047000.9,N
1547976355.6,286047002.0,N
1547976375.4,286047004.3,N
1547976395.3,286047000.1,N
1547976415.1,286047004.0,N
1547976435.9,286047002.6,N
1547976455.7,286047000.0,N
1547976475.5,286047000.8,N
1547976495.4,286047001.2,N
1547976515.2,286047000.8,N
1547976535.0,286047000.3,N
1547976535.9,286047000.3,N
1547976555.8,286047000.0,N
1547976575.6,286047000.5,N
1547976595.5,286047000.5,N
1547976615.3,286047000.7,N
1547976635.1,286047000.5,N
1547976655.9,286047002.8,N
1547976675.7,286047000.7,N
1547976695.5,286047001.0,N
1547976715.4,286047000.4,N
1547976735.2,286047002.0,N
1547976755.1,286047002.9,N
1547976756.0,286047002.9,N
1547976775.8,286047005.2,Y
1547976795.6,286047005.1,P
1547976815.5,286047002.9,N
1547976835.3,286047003.1,N
1547976855.1,286047001.3,N
1547976875.9,286047003.4,N
1547976895.7,286047004.1,Y
1547976915.6,286047002.1,P
1547976935.4,286047003.2,P
1547976955.2,286047002.9,P
1547976975.1,286047002.4,Y
1547976976.0,286047002.4,P
1547976995.8,286046999.0,P
1547977015.7,286046996.8,N
1547977035.5,286046995.1,N
1547977055.3,286046996.0,N
1547977075.2,286046995.8,N
1547977095.0,286046995.6,N
1547977095.9,286046995.6,N
1547977115.7,286046995.3,N
1547977135.6,286046997.3,N
1547977155.4,286046998.8,N
1547977175.3,286046998.7,N
1547977195.1,286047000.2,N
1547977196.0,286047000.2,N
1547977215.8,286047000.5,N
1547977235.7,286047002.6,N
1547977255.5,286047000.4,N
1547977275.3,286046999.1,N
1547977295.2,286046999.5,N
1547977315.0,286046998.8,N
1547977315.9,286046998.8,N
1547977335.8,286046996.1,N
1547977355.6,286046995.2,N
1547977375.4,286046996.4,N
1547977395.3,286046995.8,N
1547977415.1,286046996.2,N
1547977435.8,286046994.9,N
1547977455.7,286046996.8,N
1547977475.5,286046997.6,N
1547977495.4,286046997.1,N
1547977515.2,286046997.1,N
1547977535.0,286046997.5,N
1547977535.9,286046997.5,N
1547977555.8,286046995.4,N
1547977575.6,286046997.4,N
1547977595.4,286046995.3,N
1547977615.3,286046997.8,N
1547977635.1,286046998.6,N
1547977655.9,286046999.3,N
1547977675.7,286046997.0,N
1547977695.5,286046995.4,N
1547977715.4,286046995.9,N
1547977735.2,286046991.7,Y
1547977755.0,286046998.0,P
1547977755.9,286046998.0,P
1547977775.8,286046995.2,P
1547977795.6,286046993.5,Y
1547977815.5,286046995.7,P
1547977835.3,286046994.9,P
1547977855.1,286046997.9,N
1547977875.9,286046997.6,N
1547977895.7,286046997.7,N
1547977915.5,286046997.7,N
1547977935.4,286046996.5,Y
1547977955.2,286047000.3,P
1547977975.1,286047002.7,N
1547977976.0,286047002.7,N
1547977995.8,286047004.4,N
1547978015.6,286047002.9,N
1547978035.5,286047003.5,N
1547978055.3,286047005.3,N
1547978075.1,286047007.0,N
1547978095.9,286047006.7,N
1547978115.7,286047006.4,N
1547978135.6,286047006.8,N
1547978155.4,286047005.3,N
1547978175.2,286047004.8,N
1547978195.1,286047009.2,Y
1547978196.0,286047009.2,P
1547978215.8,286047005.6,N
1547978235.7,286047004.1,N
1547978255.5,286047004.2,N
1547978275.3,286047002.6,N
1547978295.2,286047003.4,N
1547978315.9,286047005.3,N
1547978335.7,286047002.9,N
1547978355.6,286047002.9,N
1547978375.4,286047004.9,N
1547978395.3,286047005.8,Y
